Regional Weather Roundup
Issued by NWS Upton, NY

Current Version | Previous Version | Text Only | Print | Product List | Glossary Off
Versions: 1 2 3 4 5 6 7 8 9 10 11 12 13 14 15 16 17 18 19 20 21 22 23 24 25 26 27 28 29
000 ASUS41 KOKX 211505 RWROKX Regional Weather Roundup National Weather Service New York NY 1000 AM EST WED FEB 21 2018 Note: "FAIR" indicates few or no clouds below 12,000 feet with no significant weather and/or obstructions to visibility. NYZ071-072-176-178-NJZ106-104-211600- New York City Metro Area CITY SKY/WX TMP DP RH WIND PRES REMARKS Central Park CLOUDY 64 58 80 W8G20 30.31S Bronx Bot Gard N/A 63 57 82 SW9 30.31S Bronx Lehman C N/A 63 57 82 SW9 N/A LaGuardia Arpt PTSUNNY 64 58 80 SW15 30.29S Queens College N/A 59 55 88 S6 N/A Kennedy Intl FOG 49 49 100 S7 30.32S VSB 1/8 Breezy Point N/A 46 N/A N/A S5 N/A Brooklyn Coll N/A 61 57 88 SW5 N/A Staten Island N/A 63 59 88 SW10 N/A Newark/Liberty CLOUDY 66 59 78 SW23 30.29S Teterboro CLOUDY 65 59 81 SW12 30.28S $$ NYZ177-179-078>081-211600- Long Island New York CITY SKY/WX TMP DP RH WIND PRES REMARKS Jones Beach N/A 45 N/A N/A S12G17 N/A Wantagh N/A 50 48 93 SW6 N/A Hempstead N/A 52 52 100 S5 30.34S Matinecock Pt N/A 59 N/A N/A SW17 N/A Farmingdale FOG 51 51 100 SW8 30.31S VSB 1/8 MacArthur/ISP FOG 51 51 100 SW9 30.31S VSB 1/8 Shirley CLOUDY 50 50 100 SW14 30.32S FOG Mt Sinai Harb N/A 54 N/A N/A S9G17 N/A Westhampton FOG 49 49 100 SW12G18 30.32F VSB 1 East Hampton FOG 47 47 99 SW10G18 30.31F VSB 3/4 Southold N/A 52 52 100 S9 N/A Montauk N/A 49 49 100 S7 30.32F $$ NYZ052-065-067-211600- Hudson Valley CITY SKY/WX TMP DP RH WIND PRES REMARKS White Plains PTSUNNY 59 56 89 CALM 30.28S FOG Larchmont Harb N/A 48 N/A N/A S10 N/A Croton On Huds N/A 59 N/A N/A S7G13 N/A Somers N/A 61 57 88 S12 N/A Brewster N/A 59 55 88 S3 N/A Newburgh MOSUNNY 61 59 94 W6 30.27S Montgomery CLOUDY 60 56 86 SW12G18 30.24F Otisville N/A 59 55 88 SW10 N/A Warwick N/A 63 57 82 W9 N/A Suffern N/A 63 57 82 S7 N/A Poughkeepsie CLOUDY 62 55 77 SW5 30.24F Albany PTSUNNY 59 54 83 S13G21 30.16F $$ NJZ001-105-106-008-010-013-015-019>022-104-211600- New Jersey CITY SKY/WX TMP DP RH WIND PRES REMARKS Newark/Liberty CLOUDY 66 59 78 SW23 30.29S Teterboro CLOUDY 65 59 81 SW12 30.28S Caldwell CLOUDY 64 59 83 W8G21 30.30R Somerville CLOUDY 65 60 84 VRB5 30.29S Linden CLOUDY 65 59 81 W10G24 30.30S Perth Amboy N/A 63 N/A N/A W16G23 N/A Sussex CLOUDY 59 57 93 VRB7 30.29R Andover N/A 60 57 89 S6 30.30R Trenton CLOUDY 65 60 84 SW9 30.32S Millville PTSUNNY 67 62 84 SW8 30.36S Atlantic City CLOUDY 65 63 93 SW12G22 30.36S Wrightstown CLOUDY 67 61 81 W18 30.30S Toms River CLOUDY 66 61 84 SW10 30.34S Belmar CLOUDY 65 61 87 SW10 N/A $$ PAZ047>061-062-071-211600- Eastern Pennsylvania CITY SKY/WX TMP DP RH WIND PRES REMARKS Philadelphia PTSUNNY 65 61 87 SW13 30.33S Allentown FAIR 57 54 89 CALM 30.29F Scranton FAIR 65 55 70 SW7 30.25F $$ CTZ002-004>006-009-010-012-RIZ004-006-007-MAZ004-011-015-211600- Southern New England In CT CITY SKY/WX TMP DP RH WIND PRES REMARKS Bradley Intl PTSUNNY 64 57 78 SW14 30.23F Hartford CLOUDY 61 57 87 S10 30.25F Danbury CLOUDY 62 57 83 SW10 30.28S Wtrbury/Oxford CLOUDY 58 56 93 SW8 30.28S FOG Norwalk Harbor N/A 48 N/A N/A SW3 N/A Bridgeport FOG 50 50 100 SW5 30.29S VSB 1/2 Meriden CLOUDY 53 53 100 S10 30.28S FOG New Haven FOG 48 48 100 SW6 30.29S VSB 1/4 Chester FOG 55 55 100 SW9 30.28S VSB<1/4 Groton FOG 49 49 100 S3 30.29F VSB<1/4 Willimantic CLOUDY 62 56 80 SW9 30.26F In RI CITY SKY/WX TMP DP RH WIND PRES REMARKS Providence CLOUDY 60 57 89 SW14G25 30.27S Block Island LGT RAIN 45 45 100 SW18 30.31 VSB 1/4 Westerly FOG 49 49 100 SW6 30.30F VSB<1/4 In MA CITY SKY/WX TMP DP RH WIND PRES REMARKS Boston PTSUNNY 63 57 81 SW21 30.20S Worcester CLOUDY 56 55 97 SW13 30.23S Westfield FAIR 64 57 78 SW10 30.21F Provincetown FOG 46 45 96 SW20G29 30.23F VSB 1/2 Nantucket FOG 47 47 100 SW16 30.33S VSB 1/4 $$ ANZ330-335-338-340-345-350-353-355-211600- Coastal Marine Observations STATION/POSITION TIME SKY/WX TEMP WIND PRES VSBY WAVE AIR SEA DIR/SP/G HT/PER (UTC) (F) (DEG/KT/KT) (MB) (MI) (FT/S) NY Harb Entrance 1450 45 41 200/ 14/ 16 1025.9 4/ 5 20 S Fire Island 1450 47 42 210/ 17/ 19 1026.8 5/ 6 15 E Barnegat Li 1430 41 N/A 4/ 5 Hudson Canyon 1450 52 47 210/ 17/ 19 1028.2 5/ 5 Kings Point 1430 54 39 200/ 10/ 12 1026.9 Execution Rocks NOT AVBL Western LI Sound NOT AVBL Central LI Sound 1415 44 200/ 6/ 6 N/A 0 Robbins Reef 1436 62 240/ 17/ 21 1026.6 $$ >>>>>>>>>>>>>>>>>>>>>>>>>>>> KEY <<<<<<<<<<<<<<<<<<<<<<<<<<< > < > SKY/WX - Sky Condition/Present Weather < > TMP - Temperature in Fahrenheit < > DP - Dew Point in Fahrenheit < > RH - Relative Humidity in Percent < > WIND - Direction (from) and Speed in MPH < > PRES - Mean Sea Level Pressure (inches of Hg) < > WCI - Wind Chill Index < > VSB - Visibility in Miles < > HX - Heat Index < > TC - Temperature in Celsius < > VRB - Varibale Wind Direction < > < >>>>>>>>>>>>>>>>>>>>>>>>>>>> KEY <<<<<<<<<<<<<<<<<<<<<<<<<<<

USA.gov is the U.S. government's official web portal to all federal, state and local government web resources and services.